Showing default

FENGYUN 2B, 26382

Orbit data source: Space-Track

FENGYUN 2B, 26382 is a payload satellite owned by CNMSC (CN) in GEO that was launched on Sun, 25 Jun 2000 UTC via a CHANG ZHENG 3 launch vehicle from the Xichang Space Center, China (XSC). Payload-class satellites include a variety of spacecraft equipped with specific instruments for various scientific and technological missions. These include communications satellites like Starlink; space stations such as the ISS; scientific satellites like the Hubble; Earth observation satellites from companies like Planet Labs, Umbra, and HawkEye 360; GPS; miniature CubeSats for education and research; and military/defense satellites.

Not visible in the next 10 days
Identifier
26382, 2000-032A
Orbit
GEO
Country
Flag of CNCN / PRC
Related business
Manufacturer
SISE
Mission
Non-operational Civil Weather
Bus & Motor
FY-2, SHANXI AKM
Mass
651 kg wet, ~600 kg dry
Launch date (UTC)
2000-06-25 (25 years ago)
Launch vehicle
CHANG ZHENG 3
Launch site
Xichang Space Center, China (XSC)
Object type
Payload
Rocket body
Debris
Shape & HBR
Cyl, 1.5 m
Radar Cross Section
6.680 m², Large (>1 m²)

Expand to show TLE details & history
Last TLE update: 1 day ago

TLE from 1 day ago
0 FENGYUN 2B
1 26382U 00032A   25348.04975476 -.00000254  00000-0  00000-0 0  9992
2 26382  13.0877  18.2555 0003932 269.2006 270.2919  1.00071185 93079
Epoch: 2025-12-14T01:11Z
TLE epoch observation values (Epoch: 2025-12-14T01:11:38.811Z)
Latitude
0.11943°
Longitude
96.84088°
Altitude
35,842.309 km
Speed
3.073 km/s
True Right ascension
13h 10m 53s
True Declination
0° 07' 10"
Sunlit
Object was in daylight at epoch
Visualization orbit readout
Latitude
Unknown
Longitude
Unknown
Altitude
Unknown
Speed
Unknown
Apparent Right ascension
Unknown
Apparent Declination
Unknown
Sunlit
N/A
Visualization observer readout
Local Sidereal Time
06:37:48
Azimuth
Unknown
Elevation
Unknown
Doppler factor
Unknown
Orbital elements
Apogee altitude
35,860.515 km
Perigee altitude
35,827.311 km
Semi-major axis
42,222.05 km
Eccentricity
0.00039
Inclination
13.0877°
RAAN
18.2555°
Arg. of periapsis
269.2006°
True anomaly
270.24684°
Mean anomaly
270.2919°
Eccentric anomaly
270.26937°
Mean motion
0.25017 °/min
Orbital period
1,439.02 mins
BSTAR
0
Loading maneuver chart data...
Computing Atmospheric mass density...
Loading historical data...
Loading historical data...
Loading historical data...
Loading historical data...
Loading historical data...
Loading historical data...
Loading historical data...
Other satellites on launch #32 in the year 2000 (2000-06-25 UTC)

Documentation

Showing up to 5 results
|